Weather History for Lamar, CO

Change the Weather History Date:

Thursday, February 14, 2013

  Actual Average Record
Temperature  
Mean Temperature 34 °F 33 °F  
Max Temperature 51 °F 49 °F 80 °F (1924)
Min Temperature 17 °F 17 °F -7 °F (2007)
Degree Days  
Heating Degree Days 31 32  
Month to date heating degree days 407 463  
Since 1 July heating degree days 3626 3894  
Cooling Degree Days 0 0  
Month to date cooling degree days 0 0  
Year to date cooling degree days 0 0  
Moisture  
Dew Point 16 °F    
Average Humidity 50    
Maximum Humidity 69    
Minimum Humidity 31    
Precipitation  
Precipitation T in 0.01 in 0.74 in (1960)
Month to date precipitation T 0.19  
Year to date precipitation 0.02 0.49  
Sea Level Pressure  
Sea Level Pressure 30.20 in    
Wind  
Wind Speed 9 mph (NW)    
Max Wind Speed 32 mph    
Max Gust Speed 39 mph    
Visibility 10 miles    
Events      
T = Trace of Precipitation, MM = Missing Value Source: NWS Daily Summary

Daily Weather History Graph

Daily Weather History Graph

Search for Another Location

Airport:

Trip Planner

Search our weather history database for the weather conditions in past years. The results will help you decide how hot, cold, wet, or windy it might be!

Date:

Astronomy

Feb. 14, 2013 Rise Set
Actual Time 6:41 AM MST 5:28 PM MST
Civil Twilight 6:14 AM MST 5:55 PM MST
Nautical Twilight 5:43 AM MST 6:26 PM MST
Astronomical Twilight 5:13 AM MST 6:57 PM MST
Moon 8:50 AM MST (2/14) 10:27 PM MST (2/14)
Length of Visible Light 11h 41m
Length of Day
10h 47m
Waxing Crescent, 22% of the Moon is Illuminated
Feb 14
Waxing Crescent
Feb 17
First Quarter
Feb 25
Full
Mar 4
Last Quarter
Mar 11
New

Hourly Weather History & Observations

Time (MST) Temp. Windchill Dew Point Humidity Pressure Visibility Wind Dir Wind Speed Gust Speed Precip Events Conditions
12:53 AM 18.0 °F 9.8 °F 3.0 °F 52% 30.06 in 10.0 mi SSW 5.8 mph - N/A   Clear
1:53 AM 21.0 °F 10.6 °F 5.0 °F 50% 30.04 in 10.0 mi South 9.2 mph - N/A   Clear
2:53 AM 19.9 °F 12.1 °F 3.9 °F 50% 30.05 in 10.0 mi SW 5.8 mph - N/A   Clear
3:53 AM 19.0 °F 10.0 °F 5.0 °F 54% 30.06 in 10.0 mi SSW 6.9 mph - N/A   Clear
5:53 AM 24.1 °F 18.2 °F 10.0 °F 55% 30.09 in 10.0 mi WSW 4.6 mph - N/A   Clear
6:53 AM 24.1 °F 17.0 °F 10.9 °F 57% 30.13 in 10.0 mi SW 5.8 mph - N/A   Clear
7:53 AM 27.0 °F 23.0 °F 12.0 °F 53% 30.16 in 10.0 mi WSW 3.5 mph - N/A   Clear
8:53 AM 33.1 °F 28.7 °F 14.0 °F 46% 30.16 in 10.0 mi West 4.6 mph - N/A   Scattered Clouds
9:53 AM 37.0 °F 33.3 °F 15.1 °F 41% 30.16 in 10.0 mi SW 4.6 mph - N/A   Overcast
10:53 AM 41.0 °F 39.0 °F 17.1 °F 38% 30.14 in 10.0 mi WNW 3.5 mph - N/A   Mostly Cloudy
11:53 AM 45.0 °F 41.8 °F 18.0 °F 34% 30.13 in 10.0 mi NNE 5.8 mph - N/A   Scattered Clouds
12:53 PM 48.0 °F - 19.0 °F 32% 30.12 in 10.0 mi ENE 8.1 mph - N/A   Clear
1:53 PM 48.9 °F - 21.9 °F 35% 30.11 in 10.0 mi NE 10.4 mph - N/A   Overcast
2:53 PM 41.0 °F 30.0 °F 28.0 °F 60% 30.17 in 10.0 mi NNE 28.8 mph 39.1 mph N/A   Overcast
3:53 PM 39.0 °F 28.3 °F 21.9 °F 50% 30.23 in 10.0 mi NNE 24.2 mph 32.2 mph N/A   Overcast
4:53 PM 34.0 °F 22.7 °F 24.1 °F 67% 30.30 in 10.0 mi NNE 19.6 mph 29.9 mph N/A   Overcast
5:53 PM 32.0 °F 20.8 °F 23.0 °F 69% 30.32 in 10.0 mi NNE 17.3 mph 26.5 mph 0.00 in   Overcast
6:53 PM 32.0 °F 24.8 °F 21.0 °F 64% 30.34 in 10.0 mi NE 8.1 mph - N/A   Overcast
7:53 PM 32.0 °F 28.7 °F 21.0 °F 64% 30.35 in 10.0 mi WSW 3.5 mph - N/A   Overcast
8:53 PM 32.0 °F 24.8 °F 19.0 °F 59% 30.35 in 10.0 mi North 8.1 mph - N/A   Overcast
9:53 PM 30.9 °F 24.3 °F 16.0 °F 54% 30.36 in 10.0 mi NNW 6.9 mph - N/A   Overcast
10:53 PM 30.0 °F 23.2 °F 15.1 °F 54% 30.36 in 10.0 mi NW 6.9 mph - N/A   Overcast
11:53 PM 26.1 °F 18.4 °F 14.0 °F 60% 30.33 in 10.0 mi NNW 6.9 mph - N/A   Overcast